Other Public Products
Issued by NWS Charleston, SC

Home | Current Version | Previous Version | Text Only | Print | Product List | Glossary On
Versions: 1 2 3 4 5 6 7 8 9 10 11 12 13 14 15 16 17 18 19 20 21 22 23 24 25 26 27 28 29 30 31 32 33 34 35 36 37 38 39 40 41 42 43 44 45 46 47 48 49 50
000
FPUS82 KCHS 211925
OPUCHS

TEST...KCHS/KSAV Gateway Observations...TEST
National Weather Service Charleston SC
200 PM EST TUE FEB 21 2017

NOTE: "fair" indicates few or no clouds below 12,000 feet with no
significant weather and/or obstructions to visibility.

SCZ050-WAZ558-NCZ071-TXZ119-213-PAZ071-DCZ001-FLZ074-172-MI076-
NYZ176-178-MAZ016-IL014-TNZ027-NJZ106-GAZ044-MD014-212000-
...Gateway Observations for Charleston International...

CITY           SKY/WX    TMP DP  RH WIND       PRES   REMARKS
Chas Airport   CLOUDY    69  56  62 E17       30.10F
Seattle        CLOUDY    44  41  89 N9        29.89R
Charlotte      CLOUDY    66  41  40 SE8       30.15F
Dallas DFW     MOSUNNY   74  48  39 N14       29.95F
Dallas Love    SUNNY     72  48  42 NW14G20   29.95F
Philladelphia  CLOUDY    51  29  42 S12       30.25F
Wash National  CLOUDY    56  30  37 S8        30.22F
Baltimore      PTSUNNY   51  30  44 SE7G18    30.22F
Miami          CLOUDY    74  62  66 E10       30.02F
Detroit        CLOUDY    55  44  66 SW6       29.94R
Newark         CLOUDY    45  31  58 SE7       30.27F
Laguardia      CLOUDY    47  28  47 S10       30.27F
J F K          CLOUDY    44  31  60 S9        30.29F
Boston Logan   PTSUNNY   39  27  62 E14       30.28F WCI  31
Ft. Lauderdale CLOUDY    76  61  59 E13       30.02F
Chicago O`Hare CLOUDY    62  54  74 SW9       29.91F
Chicago Midway CLOUDY    64  55  72 W8        29.92F
Houston Bush   MOSUNNY   71  57  61 N10       29.92F
Houston Hobby  MOSUNNY   72  56  57 N16G24    29.91F
Nashville      PTSUNNY   69  52  54 S23G33    29.93F
Atlanta        CLOUDY    68  55  63 SE9       30.02F

$$

GAZ044-118-TXZ119-213-NCZ071-DCZ001-MDZ014-506-PAZ021-071-NJZ106-
NYZ176-178-MAZ106-OHZ011-021-055-MIZ076-KYZ091-ILZ014-INZ047-
MNZ060-212000-
...Gateway Observations for Savannah International...

CITY           SKY/WX    TMP DP  RH WIND       PRES   REMARKS
Savannah Arpt  CLOUDY    73  60  63 E10       30.06F
Atlanta        CLOUDY    68  55  63 SE9       30.02F
Charlotte      CLOUDY    66  41  40 SE8       30.15F
Dallas DFW     MOSUNNY   74  48  39 N14       29.95F
Houston Bush   MOSUNNY   71  57  61 N10       29.92F
Wash National  CLOUDY    56  30  37 S8        30.22F
Wash Dulles    CLOUDY    57  28  33 S8G16     30.20F
Baltimore      PTSUNNY   51  30  44 SE7G18    30.22F
Philadelphia   CLOUDY    51  29  42 S12       30.25F
Newark         CLOUDY    45  31  58 SE7       30.27F
Laguardia      CLOUDY    47  28  47 S10       30.27F
J F K          CLOUDY    44  31  60 S9        30.29F
Boston         PTSUNNY   39  27  62 E14       30.28F WCI  31
Pittsburg      CLOUDY    65  40  39 SW8       29.99F
Akron          CLOUDY    63  42  46 SW13      29.99S
Cleveland      CLOUDY    67  41  38 SW6       29.98F
Cincinnati     CLOUDY    67  49  52 SW7       29.99F
Columbus       CLOUDY    63  46  54 CALM      29.98F
Detroit        CLOUDY    55  44  66 SW6       29.94R
Chicago O`Hare CLOUDY    62  54  74 SW9       29.91F
Minneapolis    MOSUNNY   58  37  45 S14       29.77F
Indianapolis   CLOUDY    64  47  53 SW9       29.95F

$$




USA.gov is the U.S. government's official web portal to all federal, state and local government web resources and services.